Home > Time Zones > World Clock > Weather > Ghana > Accra > Past weeks

Flag for Ghana Weather past 2 weeks in Accra, Ghana

Now
84 °F

Passing clouds.


Feels Like: 91 °F
Forecast: 77 / 85 °F
Wind: 17 mph from South

Location: Accra Airport

Current Time: Aug 28, 2015 at 12:54:51 PM

Latest Report: Aug 28, 2015 at 12:00 PM


Visibility: N/A

Pressure: 29.92 "Hg

Humidity: 70%

Dew point: 73 °F

Location of AccraLocation

Historic Weather in Accra — Graph

°F

Accra temperature yesterday

Maximum temperature yesterday: 81 °F (at 12:00 PM)
Minimum temperature yesterday: 75 °F (at 12:00 AM)
Average temperature yesterday: 77 °F

Past Weeks' High & Low Weather Summary

 TemperatureHumidityPressure
High84 °F (Aug 23, 12:00 PM)94% (Aug 13, 8:00 PM)30.04 "Hg (Aug 13, 8:00 PM)
Low73 °F (Aug 17, 5:00 AM)66% (Aug 23, 12:00 PM)29.83 "Hg (Aug 23, 3:00 PM)
Average78 °F84%29.92 "Hg
* Reported Aug 13 4:52 PM — Aug 28 10:52 AM, Accra, Weather by CustomWeather, © 2015

Note: Actual official high and low records may vary slightly from our data, if they occured in-between our weather recording intervals... More about our weather records

Advertising

Accra weather history for previous 24 hours

 ConditionsComfort  
Time TempWeatherWind HumidityBarometerVisibility
10:52 AM
Fri, Aug 28
82 °FPartly sunny.18 mph70%29.95 "HgN/A
10:00 AM82 °FPartly sunny.17 mph74%29.95 "HgN/A
8:50 AM81 °FMostly cloudy.17 mph79%29.95 "HgN/A
8:00 AM79 °FPartly sunny.14 mph84%29.95 "HgN/A
7:00 AM77 °FScattered clouds.12 mph89%29.92 "HgN/A
6:00 AM75 °FPassing clouds.12 mph89%29.89 "HgN/A
4:00 AM75 °FOvercast.10 mph89%29.89 "HgN/A
3:00 AM77 °FOvercast.13 mph83%29.86 "HgN/A
1:00 AM75 °FOvercast.10 mph89%29.89 "HgN/A
12:00 AM75 °FPassing clouds.16 mph94%29.89 "HgN/A
11:00 PM
Thu, Aug 27
77 °FPartly cloudy.16 mph89%29.92 "HgN/A
10:00 PM77 °FPassing clouds.16 mph89%29.92 "HgN/A
9:00 PM77 °FOvercast.15 mph89%29.92 "HgN/A
8:00 PM77 °FMostly cloudy.16 mph89%29.89 "HgN/A
7:00 PM77 °FOvercast.18 mph89%29.86 "HgN/A
5:51 PM77 °FOvercast.20 mph83%29.86 "HgN/A
5:00 PM79 °FPartly sunny.21 mph79%29.83 "HgN/A
3:52 PM81 °FPartly sunny.20 mph74%29.83 "HgN/A
2:50 PM79 °FOvercast.23 mph79%29.83 "HgN/A
1:52 PM81 °FMostly cloudy.20 mph74%29.86 "HgN/A
1:00 PM81 °FPartly sunny.21 mph74%29.89 "HgN/A
12:00 PM81 °FOvercast.16 mph79%29.95 "HgN/A
Weather by CustomWeather, © 2015

See weather overviewHow to use our weather pages